"Pseudo-MPEC" for P11ZQp7

Created 2024 Oct 12 8:31:11 UT using Find_Orb

Click here for an explanation of pseudo-MPECs

 
 Astrometry: 
     P11ZQp7* C2024 10 01.53249503 22 05.162-43 51 11.76   ~A1E7 21.31wXNEOCPF51
     P11ZQp7  C2024 10 01.53964103 22 04.846-43 51 14.49   ~A1E7 21.26wXNEOCPF51
     P11ZQp7  C2024 10 01.54675303 22 04.535-43 51 17.21   ~A1E7 21.06wXNEOCPF51
     P11ZQp7  C2024 10 01.55385003 22 04.207-43 51 19.91   ~A1E7 21.44wXNEOCPF51
     P11ZQp7 |C2024 10 02.29924003 21 32.640-43 55 51.40   ~A297 20.9 GVNEOCP807
     P11ZQp7 |C2024 10 02.30294203 21 32.460-43 55 52.60   ~A297 20.6 GVNEOCP807
     P11ZQp7 |C2024 10 02.30663003 21 32.290-43 55 53.90   ~A297 20.8 GVNEOCP807

Station data:
(807) Cerro Tololo Observatory, La Serena  (S30.169133 W70.805900)  Chile.
   Observer R. Holmes. 0.61-m f/6.5 astrograph + CCD.
(F51) Pan-STARRS 1, Haleakala  (N20.707234 W156.255910)  US/Hawaii.
   Observers J. Bulger, T. Lowe, A. Schultz, M. Willman. Measurers K.
   Chambers, S. Chastel, T. de Boer, L. Denneau, J. Fairlamb, H. Flewelling,
   M. Huber, C.-C. Lin, E. Magnier, Y. Ramanjooloo, R. Wainscoat, R. Weryk.
   1.8-m Ritchey-Chrétien + CCD.

Orbital elements:  P11ZQp7
   Perihelion 2023 Dec 18.91314 +/- 552 TT = 21:54:55 (JD 2460297.41314)
Epoch 2024 Oct  2.0 TT = JDT 2460585.5                           AutoNEOCP
M  27.32731816 +/- 60               (J2000 ecliptic)
n   0.09485791 +/- 0.0973           Peri.  190.67474 +/- 100
a   4.76160833 +/- 3.26             Node   102.98850 +/- 44
e   0.5452676 +/- 0.251             Incl.   43.86758 +/- 25
P  10.39036                H 15.70  G  0.15   U 11.2  SR
q 2.16525736 +/- 1.42    Q 7.35795929 +/- 12.5
From 7 observations 2024 Oct. 1-2 (18.6 hr); mean residual 0".08
Residuals in arcseconds: 
241001 F51  .08+  .09+    241001 F51  .15-  .09-    241002 807  .08-  .08+    
241001 F51  .04+  .03+    241002 807  .13+  .10-    
241001 F51  .04+  .03-    241002 807  .03-  .04+    

Ephemerides (geocentric):
Date (UTC) HH   RA             Dec           delta  r     elong  mag " sig PA
---- --------  ------------   ------------  ------ ------ -----  --- --------
2024 10 12 09  03 13 11.653   -44 42 55.14  2.5837 3.2131 121.0 21.1  799  52
2024 10 12 10  03 13 09.334   -44 43 03.17  2.5838 3.2133 121.0 21.1  806  52
2024 10 12 11  03 13 07.014   -44 43 11.17  2.5840 3.2136 121.0 21.1  812  52
2024 10 12 12  03 13 04.691   -44 43 19.13  2.5842 3.2138 121.0 21.1  819  52
2024 10 12 13  03 13 02.367   -44 43 27.06  2.5844 3.2140 121.0 21.1  826  52
2024 10 12 14  03 13 00.041   -44 43 34.96  2.5846 3.2142 121.0 21.1  832  52
2024 10 12 15  03 12 57.714   -44 43 42.83  2.5847 3.2144 121.0 21.1  839  51
2024 10 12 16  03 12 55.384   -44 43 50.67  2.5849 3.2146 121.0 21.1  846  51
2024 10 12 17  03 12 53.053   -44 43 58.48  2.5851 3.2148 121.0 21.1  852  51
2024 10 12 18  03 12 50.721   -44 44 06.25  2.5853 3.2151 121.0 21.1  859  51
2024 10 12 19  03 12 48.386   -44 44 13.99  2.5855 3.2153 121.0 21.1  866  51
2024 10 12 20  03 12 46.050   -44 44 21.70  2.5856 3.2155 121.0 21.1  873  51
2024 10 12 21  03 12 43.713   -44 44 29.38  2.5858 3.2157 121.0 21.1  880  51
2024 10 12 22  03 12 41.373   -44 44 37.02  2.5860 3.2159 121.0 21.1  887  51
2024 10 12 23  03 12 39.032   -44 44 44.63  2.5862 3.2161 121.0 21.1  893  51
2024 10 13 00  03 12 36.689   -44 44 52.22  2.5864 3.2163 121.0 21.1  900  51
2024 10 13 01  03 12 34.345   -44 44 59.76  2.5866 3.2165 121.0 21.1  907  51
2024 10 13 02  03 12 31.999   -44 45 07.28  2.5867 3.2168 121.0 21.1  914  51
2024 10 13 03  03 12 29.651   -44 45 14.77  2.5869 3.2170 121.0 21.2  921  51
2024 10 13 04  03 12 27.302   -44 45 22.22  2.5871 3.2172 121.0 21.2  928  51
2024 10 13 05  03 12 24.951   -44 45 29.64  2.5873 3.2174 121.0 21.2  935  51
2024 10 13 06  03 12 22.598   -44 45 37.03  2.5875 3.2176 121.0 21.2  943  51
2024 10 13 07  03 12 20.244   -44 45 44.38  2.5877 3.2178 121.1 21.2  950  51
2024 10 13 08  03 12 17.888   -44 45 51.71  2.5878 3.2180 121.1 21.2  957  51
2024 10 13 09  03 12 15.530   -44 45 59.00  2.5880 3.2182 121.1 21.2  964  51
2024 10 13 10  03 12 13.171   -44 46 06.26  2.5882 3.2185 121.1 21.2  971  51
2024 10 13 11  03 12 10.810   -44 46 13.49  2.5884 3.2187 121.1 21.2  978  51
2024 10 13 12  03 12 08.448   -44 46 20.68  2.5886 3.2189 121.1 21.2  986  51
2024 10 13 13  03 12 06.083   -44 46 27.84  2.5888 3.2191 121.1 21.2  993  51
2024 10 13 14  03 12 03.718   -44 46 34.97  2.5889 3.2193 121.1 21.2 1000  51
2024 10 13 15  03 12 01.350   -44 46 42.07  2.5891 3.2195 121.1 21.2 1008  51
2024 10 13 16  03 11 58.981   -44 46 49.14  2.5893 3.2197 121.1 21.2 1015  51
2024 10 13 17  03 11 56.611   -44 46 56.17  2.5895 3.2200 121.1 21.2 1022  51
2024 10 13 18  03 11 54.239   -44 47 03.17  2.5897 3.2202 121.1 21.2 1030  51
2024 10 13 19  03 11 51.865   -44 47 10.14  2.5899 3.2204 121.1 21.2 1037  51
2024 10 13 20  03 11 49.490   -44 47 17.08  2.5901 3.2206 121.1 21.2 1045  51
2024 10 13 21  03 11 47.113   -44 47 23.98  2.5903 3.2208 121.1 21.2 1052  51
2024 10 13 22  03 11 44.734   -44 47 30.85  2.5904 3.2210 121.1 21.2 1060  51
2024 10 13 23  03 11 42.354   -44 47 37.69  2.5906 3.2212 121.1 21.2 1067  51
2024 10 14 00  03 11 39.973   -44 47 44.50  2.5908 3.2214 121.1 21.2 1075  51
2024 10 14 01  03 11 37.589   -44 47 51.27  2.5910 3.2217 121.1 21.2 1083  51
2024 10 14 02  03 11 35.205   -44 47 58.01  2.5912 3.2219 121.1 21.2 1090  51
2024 10 14 03  03 11 32.818   -44 48 04.72  2.5914 3.2221 121.1 21.2 1098  51
2024 10 14 04  03 11 30.430   -44 48 11.40  2.5916 3.2223 121.1 21.2 1106  51
2024 10 14 05  03 11 28.041   -44 48 18.04  2.5918 3.2225 121.1 21.2 1113  51
2024 10 14 06  03 11 25.650   -44 48 24.65  2.5920 3.2227 121.1 21.2 1121  51
2024 10 14 07  03 11 23.257   -44 48 31.23  2.5921 3.2229 121.1 21.2 1129  51
2024 10 14 08  03 11 20.863   -44 48 37.78  2.5923 3.2231 121.1 21.2 1137  51